www.pogodaiklimat.ru

Погода и климат >> Архив погоды >> Россия >> Владимирская область >> Владимир


АРХИВ ПОГОДЫ в Владимире

Время (UTC), дата Ветер
(напр.,м/с)
 
Видим.   Явления Облачность Т
(С)
Тd
(С)
f
(%)
Тe
(С)
Тes
(С)
Комфортность P
(гПа)
Po
(гПа)
Тmin
(С)
Tmax
(С)
R
(мм)
R24
(мм)
S
(см)
09 14.01 Ю 4 4000 м слаб. снег 10/8 420 м
[Frnb Ac As]
-3.2 -4.9 88 -9 -9 по сезону 993.2 971.9
12 14.01 Ю 3 4000 м слаб. снег 10/8 270 м
[Frnb Ac As]
-3.2 -5.1 87 -8 -8 по сезону 992.4 971.2
15 14.01 Ю 4 4000 м слаб. снег 10/8 270 м
[Frnb Ac As]
-3.2 -4.5 91 -9 -9 по сезону 992.6 971.3 -3.2 1
18 14.01 Ю 5
{10}
4000 м слаб. снег 10/8 240 м
[Frnb Ac As]
-2.8 -4.4 89 -10 -10 по сезону 993.1 971.9
21 14.01 Ю 4
{10}
4000 м слаб. снег 10/8 270 м
[Frnb Ac As]
-2.9 -5.2 84 -9 -9 по сезону 993.6 972.4
00 15.01 Ю 3
{11}
4000 м слаб. снег 10/8 300 м
[Frnb Ac As]
-3.1 -5.1 86 -8 -8 по сезону 993.7 972.4
03 15.01 Ю 4
{11}
4000 м слаб. снег 10/8 270 м
[Frnb Ac As]
-3.9 -5.5 89 -10 -10 по сезону 993.2 971.9 -3.9 0.7 37
06 15.01 Ю 4 4000 м слаб. снег 10/8 210 м
[Frnb Ac As]
-4.0 -5.2 91 -10 -10 по сезону 993.2 971.9 -4.2
09 15.01 Ю 3 4000 м слаб. снег 10/6 270 м
[Frnb Ac As]
-2.8 -4.5 88 -8 -8 по сезону 992.8 971.5
12 15.01 Ю 3 10 км слаб. снег 10/6 330 м
[Frnb Ac As]
-1.6 -3.3 88 -7 -7 по сезону 992.0 970.9
15 15.01 Ю 5 10 км в посл. час снег 9/8 600 м
[Sc Ac trans]
-0.8 -3.4 83 -7 -7 по сезону 993.2 972.2 -0.7 0.4
18 15.01 Ю 4
{12}
10 км слаб. ливневой снег 8/6 800 м
[Cb cap Ac trans]
-2.6 -6.3 76 -8 -8 по сезону 995.5 974.2
21 15.01 Ю 4 10 км в посл. час ливневой снег 8/6 870 м
[Cb cap Ac trans]
-4.5 -6.7 85 -11 -11 по сезону 997.3 975.8
00 16.01 Ю 2 4000 м дымка 3/0
[Ci fib]
-8.4 -9.5 92 -13 -13 по сезону 997.8 976.0 -8.4 0.0 37
03 16.01 Ю 2 4000 м дымка 3/0
[Ci fib]
-8.4 -9.5 92 -13 -13 по сезону 997.8 976.0 -8.4 0.0 37
06 16.01 Ю 1 4000 м дымка 8/4 600 м
[Sc Ac trans]
-11.1 -12.2 92 -13 -13 по сезону 998.6 976.6 -12.1
09 16.01 ЮВ 1 4000 м дымка 5/0
[Ac trans]
-9.5 -10.7 91 -12 -11 по сезону 997.8 975.9
12 16.01 ЮЗ 1 10 км 3/0
[Ac trans]
-9.6 -11.2 88 -12 -12 по сезону 997.8 975.9
15 16.01 ЮЗ 3 10 км 3/0
[Ac trans]
-12.6 -13.8 91 -19 -19 холодно 998.8 976.7 -8.3
18 16.01 ЮЗ 3 10 км 3/0
[Ac trans]
-13.8 -15.2 89 -20 -20 холодно 999.8 977.5
21 16.01 ЮЗ 5 4000 м 8/0
[Ac trans]
-10.9 -12.2 90 -19 -19 холодно 1001.1 979.1
00 17.01 ЮЗ 4 4000 м дымка 9/0
[Ac trans]
-10.5 -11.8 90 -18 -18 прохладно 1002.2 980.1
03 17.01 ЮЗ 4 4000 м дымка 10/8 750 м
[Sc Ac As]
-9.0 -10.2 91 -16 -16 по сезону 1003.1 981.2 -14.1 37
06 17.01 Ю 4 4000 м слаб. снег 10/8 270 м
[Frnb Ac As]
-7.5 -8.5 93 -14 -14 по сезону 1003.9 982.1
09 17.01 Ю 4 10 км {снег} 9/9 600 м
[Sc]
-5.2 -7.3 85 -12 -12 по сезону 1003.6 981.9
12 17.01 Ю 6-11
{11}
10 км {снег} 9/9 700 м
[Sc]
-4.6 -7.6 80 -12 -12 по сезону 1001.6 980.0
15 17.01 Ю 5
{12}
2000 м слаб. снег {метель} 10/8 400 м
[Frnb Ac As]
-5.2 -6.8 88 -12 -12 по сезону 1000.0 978.4 -4.5 0.4
18 17.01 Ю 6
{13}
2000 м слаб. снег {метель} 10/8 150 м
[Frnb Ac As]
-4.8 -6.0 91 -13 -13 по сезону 997.4 976.0
21 17.01 Ю 7-12
{13}
2000 м слаб. снег 10/8 180 м
[Frnb Ac As]
-3.5 -4.6 92 -12 -12 по сезону 995.5 974.2
00 18.01 ЮЗ 8-11
{13}
2000 м снег 10/8 120 м
[Frnb Ac As]
-2.1 -2.9 94 -10 -10 по сезону 995.2 974.0
03 18.01 ЮЗ 6
{13}
4000 м слаб. снег {метель} 10/8 270 м
[Frnb Ac As]
-0.4 -1.5 92 -7 -7 тепло 996.4 975.2 -5.2 3 39
06 18.01 ЮЗ 6-10
{11}
4000 м слаб. ливневой снег 10/8 30 м
[Cb cap Ac As]
+0.4 -1.7 86 -6 -6 тепло 998.0 976.9
09 18.01 ЮЗ 7-11
{11}
10 км {ливн. осадки} 10/8 600 м
[Sc Ac As]
+1.2 -1.7 81 -5 -5 тепло 999.9 978.8
12 18.01 ЮЗ 6
{11}
10 км {ливн. осадки} 10/5 600 м
[Sc Ac As]
+1.3 -1.7 80 -5 -5 тепло 1000.6 979.6
15 18.01 ЮЗ 5
{10}
10 км 9/5 720 м
[Sc Ac trans]
+0.3 -2.3 83 -6 -6 тепло 1001.3 980.2 +1.5 0.3
18 18.01 Ю 3 2000 м ливневой снег 10/10 240 м
[Cb cap]
-1.1 -1.8 95 -6 -6 тепло 999.5 978.3
21 18.01 ЮЗ 6
{11}
1000 м снег {ливн. осадки} 10/10 150 м
[Frnb Ns]
-0.1 -0.7 96 -7 -7 тепло 998.1 977.0
00 19.01 ЮЗ 5
{11}
4000 м слаб. снег 10/10 180 м
[Frnb Ns]
+0.3 -0.7 93 -6 -6 тепло 998.5 977.4
03 19.01 СЗ 5
{12}
10 км в посл. час снег 8/8 500 м
[Sc]
-5.1 -7.6 83 -12 -12 по сезону 1004.5 982.8 -5.2 4 41
06 19.01 ЮЗ 3
{10}
10 км {снег} 3/0
[Ac trans]
-10.1 -11.9 87 -16 -16 по сезону 1007.6 985.5 -10.1
09 19.01 ЮЗ 4 10 км 4/4 600 м
[Sc]
-6.3 -9.1 80 -13 -12 по сезону 1008.1 986.3
12 19.01 З 4 10 км 10/6 660 м
[Sc Ac As]
-4.8 -8.1 78 -11 -11 по сезону 1008.4 986.7
15 19.01 ЮЗ 4 10 км 10/6 540 м
[Sc Ac As]
-5.5 -8.1 82 -12 -12 по сезону 1009.1 987.3 -4.7
18 19.01 ЮЗ 4 10 км 6/0
[Ac trans]
-6.3 -8.1 87 -13 -13 по сезону 1009.8 988.0
21 19.01 З 4 10 км слаб. ливневой снег 8/6 500 м
[Cb cap Ac trans]
-8.2 -11.2 79 -15 -15 по сезону 1012.4 990.4
00 20.01 ЮЗ 3 10 км слаб. ливневой снег 8/6 360 м
[Cb cap Ac und]
-9.9 -11.8 86 -16 -16 прохладно 1014.1 991.8
03 20.01 ЮЗ 5 4000 м слаб. ливневой снег 9/9 270 м
[Cb cap]
-10.5 -11.9 89 -18 -18 холодно 1013.8 991.5 -12.5 0.4 41
06 20.01 ЮЗ 3 10 км {ливн. осадки} 8/0
[Ac trans Ci fib]
-10.5 -11.8 90 -16 -16 прохладно 1013.7 991.3
09 20.01 ЮЗ 6-10
{10}
10 км 10/6 450 м
[Sc Ac As]
-6.3 -8.7 83 -14 -14 по сезону 1011.5 989.6
12 20.01 ЮЗ 7-10
{13}
4000 м слаб. ливневой снег 10/8 420 м
[Cb cap Ac As]
-5.5 -7.7 84 -14 -14 прохладно 1009.5 987.7
15 20.01 ЮЗ 6
{11}
10 км слаб. ливневой снег 10/6 600 м
[Cb cap Ac As]
-5.0 -7.7 81 -13 -13 по сезону 1008.7 986.9 -4.9 0.0
18 20.01 ЮЗ 7-10
{12}
10 км слаб. ливневой снег 9/6 600 м
[Cb cap Ac trans]
-5.0 -8.0 79 -13 -13 по сезону 1008.3 986.6
21 20.01 ЮЗ 6
{11}
10 км в посл. час ливневой снег 10/5 600 м
[Cb cap Ac As]
-5.3 -8.4 79 -13 -13 по сезону 1008.3 986.6
00 21.01 ЮЗ 5
{10}
10 км слаб. ливневой снег 10/6 450 м
[Cb cap Ac As]
-5.9 -8.3 83 -13 -13 по сезону 1007.9 986.1
03 21.01 ЮЗ 5 10 км слаб. ливневой снег 10/6 420 м
[Cb cap Ac As]
-6.3 -8.3 86 -14 -14 по сезону 1007.5 985.7 -6.4 0.0 40
06 21.01 ЮЗ 3 10 км {ливн. осадки} 8/6 600 м
[Sc Ac und]
-7.1 -8.6 89 -13 -13 по сезону 1008.0 986.1 -7.4

 

Местоположение метеостанции Владимир (Владимирская область, Россия): широта 56.12 долгота 40.35 высота над уровнем моря 172 м.

В архиве по умолчанию представлена погода в Владимире за последнюю неделю. Архивные данные за месяц целиком и за предыдущие месяцы, начиная с января 2011 года, Вы можете получить, выбрав интересующий диапазон дат из раскрывающегося списка и нажав кнопку "Ввод!".


*Определитесь, кто Вы:
робот инопланетянин человек

Внимание! Время в таблицах - всемирное. Для получения местного времени необходимо прибавить поправку, которая равна 3 ч.

Смотрите также архив погоды в соседних городах и на ближайших метеорологических станциях:

Погода в Суздале (Владимирская область, Россия) (34 км)
Погода в Юрьев-Польском (Владимирская область, Россия) (58 км)
Погода в Петушках (Владимирская область, Россия) (59 км)
Погода в Гусь-Хрустальный (Владимирская область, Россия) (61 км)
Погода в Черустях (Московская область, Россия) (67 км)
Погода в Коврове (Владимирская область, Россия) (67 км)
Погода в Тейково (Ивановская область, Россия) (82 км)
Погода в Иванове (Ивановская область, Россия) (100 км)
Погода в Александрове (Владимирская область, Россия) (104 км)
Погода в Шуе (Ивановская область, Россия) (104 км)

Пояснения к столбцам:

Ветер - указаны скорость ветра в м/с - средняя за 10 мин, порывы в срок и между сроками (в фигурных скобках) и направление, откуда дует ветер: С - северный, СВ - северо-восточный, В - восточный, ЮВ - юго-восточный, Ю - южный, ЮЗ - юго-западный, З - западный, СЗ - северо-западный.
Видимость - горизонтальная дальность видимости в метрах или километрах. При видимости от 1 до 10 км при отсутствии осадков обычно наблюдается дымка, при ухудшении видимости до 1 км и менее - туман. В сухую погоду видимость может ухудшаться дымом, пылью или мглою.
Явления - указаны атмосферные явления, наблюдавшиеся в срок или в последний час перед сроком; фигурными скобками обозначены явления, наблюдавшиеся между сроками (за 1-3 часа до срока); квадратными скобками обозначены град или гололедные отложения с указанием их диаметра в мм.
Облачность - указаны через наклонную черту общая и нижняя облачность в баллах и высота нижней границы облаков в метрах; квадратными скобками обозначены формы облаков: Ci - перистые, Cs - перисто-слоистые, Cc - перисто-кучевые, Ac - высококучевые, As - высокослоистые, Sc - слоисто-кучевые, Ns - слоисто-дождевые, Cu - кучевые, Cb - кучево-дождевые. Подробнее классификацию облаков см. в Атласе облаков (PDF).
T - Температура воздуха - температура, измеренная на высоте 2 м над землей.
Td - Температура точки росы - температура, при понижении до которой содержащийся в воздухе водяной пар достигнет насыщения.
f - Относительная влажность воздуха - влажноcть воздуха, измеренная на высоте 2 м над землей.
Te - Эффективная температура - температура, которую ощущает одетый по сезону человек в тени. Характеристика душности погоды. При расчете учитывается влияние влажности воздуха и скорости ветра на теплоощущения человека.
Tes - Эффективная температура на солнце - температура, которую ощущает человек, с поправкой на солнечный нагрев. Характеристика знойности погоды. Зависит от высоты солнца над горизонтом, облачности и скорости ветра. Ночью, в пасмурную погоду, а также при ветре 12 м/с и более поправка равна нулю.
P - Атмосферное давление - приведенное к уровню моря атмосферное давление.
Po - Атмосферное давление - измеренное на уровне метеостанции атмосферное давление.
Tmin - Минимальная температура - минимум температуры воздуха на высоте 2 м над землей.
Tmax - Максимальная температура - максимум температуры воздуха на высоте 2 м над землей.
R - Количество осадков - Количество выпавших осадков за период времени, мм. При наведении курсора мыши на число - период времени, за который выпало указанное количество осадков.
R24 - Количество осадков - Количество выпавших осадков за 24 часа, мм.
S - Снежный покров - Высота снежного покрова, см. При наведении курсора мыши на число - состояние снежного покрова и степень покрытия местности в баллах.